Location: Bourg-d�Oueil
(42.8588°N, 0.4991°E)
Time: 19:33:11
(UTC+00:00)

Lacrosse 5 - Pass Details

Date: 16 June 2021
Orbit: 715 x 724 km, 57.0° (Epoch: 21 July)

Event Time Altitude Azimuth Distance (km) Brightness Sun altitude
Rises 22:49:18 0° 292° (WNW) 3,123 5.7 -21.8°
Reaches altitude 10° 22:54:11 10° 251° (WSW) 2,198 4.3 -22.1°
Maximum altitude 22:54:48 10° 244° (WSW) 2,183 4.2 -22.1°
Enters shadow 22:55:16 10° 239° (WSW) 2,190 4.2 -22.2°
